Home   Weather   Malmö   Past weeks

Flag for Sweden Past Weather in Malmö, Sweden — Yesterday and Last 2 Weeks

Now
43 °F

Fog.


Feels Like: 35 °F
Forecast: 38 / 43 °F
Wind: 17 mph from Southwest

Location: Malmo / Sturup

Current Time: Feb 27, 2017 at 5:41:19 am

Latest Report: Feb 27, 2017 at 4:50 am


Visibility: 3 mi

Pressure: 29.59 "Hg

Humidity: 93%

Dew Point: 41 °F

Location of MalmöLocation

Past Weather in Malmö — Graph

°F

Malmö Temperature Yesterday

Maximum temperature yesterday: 43 °F (at 10:50 am)
Minimum temperature yesterday: 37 °F (at 12:20 am)
Average temperature yesterday: 41 °F

High & Low Weather Summary for the Past Weeks

 TemperatureHumidityPressure
High46 °F (Feb 22, 1:50 pm)100% (Feb 13, 9:20 pm)30.72 "Hg (Feb 13, 9:20 pm)
Low18 °F (Feb 13, 1:50 am)37% (Feb 15, 12:20 pm)28.88 "Hg (Feb 23, 9:50 pm)
Average36 °F89%29.93 "Hg
* Reported Feb 12 4:20 am — Feb 27 4:20 am, Malmö, Weather by CustomWeather, © 2017

Note: Actual official high and low records may vary slightly from our data, if they occured in-between our weather recording intervals... More about our weather records

Advertising

Malmö Weather History for the Previous 24 Hours

Scroll right to see more
 ConditionsComfort  
Time TempWeatherWind HumidityBarometerVisibility
4:20 am
Mon, Feb 27
43 °FFog.14 mph100%29.62 "Hg2 mi
3:50 am43 °FFog.15 mph93%29.62 "Hg2 mi
3:20 am43 °FFog.14 mph100%29.62 "Hg2 mi
2:50 am43 °FFog.14 mph100%29.62 "Hg2 mi
2:20 am43 °FFog.13 mph100%29.62 "Hg2 mi
1:50 am43 °FFog.14 mph100%29.65 "Hg2 mi
1:20 am43 °FFog.13 mph100%29.65 "Hg1 mi
12:50 am43 °FFog.12 mph100%29.65 "Hg1 mi
12:20 am43 °FFog.12 mph100%29.65 "Hg1 mi
11:50 pm
Sun, Feb 26
43 °FFog.13 mph100%29.65 "Hg1 mi
11:20 pm43 °FFog.14 mph100%29.65 "Hg1 mi
10:50 pm43 °FFog.14 mph100%29.65 "Hg1 mi
10:20 pm43 °FFog.12 mph100%29.65 "Hg1 mi
9:50 pm43 °FFog.14 mph100%29.65 "Hg1 mi
9:20 pm43 °FFog.14 mph100%29.65 "Hg1 mi
8:50 pm43 °FLight rain. Fog.13 mph100%29.62 "Hg2 mi
8:20 pm43 °FLight rain. Low clouds.12 mph100%29.65 "Hg1 mi
7:50 pm43 °FFog.14 mph100%29.65 "Hg1 mi
7:20 pm43 °FFog.15 mph100%29.62 "Hg1 mi
6:50 pm43 °FFog.15 mph100%29.62 "Hg1 mi
6:20 pm43 °FFog.15 mph100%29.62 "Hg1 mi
5:50 pm43 °FFog.15 mph100%29.59 "Hg2 mi
5:20 pm43 °FFog.15 mph100%29.59 "Hg2 mi
4:50 pm43 °FFog.14 mph100%29.59 "Hg4 mi
4:20 pm43 °FFog.16 mph100%29.59 "Hg4 mi
3:50 pm43 °FFog.16 mph100%29.59 "Hg4 mi
3:20 pm43 °FFog.16 mph93%29.59 "Hg4 mi
2:50 pm43 °FFog.16 mph100%29.59 "Hg5 mi
2:20 pm43 °FFog.17 mph100%29.59 "Hg4 mi
1:50 pm43 °FFog.17 mph100%29.59 "Hg5 mi
1:20 pm43 °FLow clouds.16 mph100%29.59 "HgN/A
12:50 pm43 °FFog.17 mph100%29.59 "Hg4 mi
12:20 pm43 °FDrizzle. Low clouds.16 mph93%29.59 "Hg1 mi
11:50 am43 °FDrizzle. Low clouds.17 mph100%29.59 "Hg2 mi
11:20 am43 °FFog.16 mph93%29.59 "Hg2 mi
10:50 am43 °FFog.15 mph93%29.59 "Hg2 mi
10:20 am41 °FFog.14 mph100%29.59 "Hg2 mi
9:50 am41 °FFog.16 mph100%29.59 "Hg4 mi
9:20 am41 °FFog.16 mph100%29.56 "Hg5 mi
8:50 am41 °FLow clouds.18 mph100%29.56 "HgN/A
8:20 am41 °FFog.17 mph100%29.56 "Hg6 mi
7:50 am41 °FFog.17 mph100%29.56 "Hg5 mi
7:20 am41 °FFog.17 mph100%29.56 "Hg3 mi
6:50 am41 °FFog.16 mph100%29.56 "Hg3 mi
6:20 am41 °FFog.17 mph100%29.56 "Hg3 mi
5:50 am41 °FFog.16 mph100%29.56 "Hg1 mi
5:20 am41 °FFog.17 mph100%29.56 "Hg1 mi
Weather by CustomWeather, © 2017

See weather overviewHow to use our weather pages